User: anonymous
Location: Prairie State College
(41.5244°N, 87.6382°W)
Time: 11:56:21
(UTC-05:00)
Language:

MSX - Orbit

View from above orbital plane
View from above orbital plane
View from above satellite
View from above satellite

Ground track
Ground track

The orbit data is extracted from the following two-line orbital elements,

1 23851U 96024A   14237.16807875 0.00000100  00000-0  70546-4 0    09
2 23851  98.7796 280.1339 0006000 308.3357  51.6642 13.97980239    03
Epoch (UTC): 25 August 2014 04:02:02
Eccentricity: 0.0006000
inclination: 98.7796°
perigee height: 896 km
apogee height: 905 km
right ascension of ascending node: 280.1339°
argument of perigee: 308.3357°
revolutions per day: 13.97980239
mean anomaly at epoch: 51.6642°
orbit number at epoch: 0

The dashed part of the orbit path shows where the satellite is in the earth's shadow,  

DLR